[[{"header":{"parameterUnit":"m.s-1","parameterCategory":1,"la1":30.2991,"la2":30.254,"lo1":-89.0895,"lo2":-89.0444,"dy":0.0017,"dx":0.0017,"nx":28,"ny":28,"refTime":"2023-10-28T21:00:00:Z","depth":0,"parameterNumber":2,"parameterNumberName":"U-component_of_WINDS"},"data":[0,0,0,0,0,0,0,0,0,0,0,0,0,0,0,0,0,0,0,0,0,0,0,0,0,0,0,0,0,0,0,0,0,0,0,0,0,0,0,0,0,0,0,0,0,0,0,0,0,0,0,0,0,0,0,0,0,0,-0.0625,-0.0625,0,-0.0685,-0.0685,-0.0686,-0.0628,-0.0625,-0.0623,-0.0621,-0.0686,-0.069,-0.0694,0,0,0,0,0,0,0,0,0,0,0,0,0,-0.0464,-0.0467,-0.0625,-0.0625,-0.0626,-0.0685,-0.0685,-0.0686,-0.0628,-0.0625,-0.0622,-0.062,-0.0685,-0.069,-0.0694,0,0,0,0,0,0,0,0,0,0,0,0,0,-0.053,-0.0468,-0.0624,-0.0604,-0.0603,-0.0684,-0.0685,-0.0686,-0.0629,-0.0625,-0.0622,-0.0619,-0.0684,-0.0689,-0.0695,-0.0801,0,0,-0.0713,-0.0716,0,0,0,0,0,0,0,0,-0.0526,-0.0536,-0.0606,-0.0606,-0.0604,-0.0645,-0.0653,-0.0725,-0.063,-0.0619,-0.0621,-0.0617,-0.0676,-0.0682,-0.0701,-0.0804,-0.0807,-0.0714,-0.0717,-0.072,-0.0721,0,0,0,0,0,0,0,-0.0522,-0.0533,-0.0648,-0.0607,-0.0606,-0.0593,-0.0599,-0.0666,-0.0666,-0.062,-0.0616,-0.0623,-0.0675,-0.0696,-0.0702,-0.0808,-0.0713,-0.0719,-0.0722,-0.0725,-0.1002,-0.1005,0,0,0,0,0,0,-0.0519,-0.0529,-0.0647,-0.065,-0.0556,-0.0599,-0.0605,-0.0636,-0.0665,-0.0667,-0.0626,-0.062,-0.0687,-0.0695,-0.0704,-0.0831,-0.072,-0.0725,-0.0728,-0.0998,-0.1003,-0.1007,0,0,0,0,0,0,-0.0515,-0.053,-0.0644,-0.0589,-0.0602,-0.0605,-0.064,-0.0639,-0.0659,-0.067,-0.067,-0.0647,-0.0685,-0.0696,-0.0777,-0.0832,-0.0728,-0.0733,-0.0993,-0.0999,-0.1005,-0.1085,0,0,0,0,0,0,-0.0511,-0.0529,-0.0568,-0.059,-0.0605,-0.0715,-0.0643,-0.0642,-0.0669,-0.0662,-0.069,-0.0692,-0.0683,-0.0769,-0.0783,-0.0839,-0.0738,-0.0989,-0.0996,-0.1003,-0.1077,-0.1093,-0.1106,0,0,0,0,0,-0.0505,-0.0589,-0.057,-0.0585,-0.0655,-0.0719,-0.0727,-0.0715,-0.0674,-0.0714,-0.0721,-0.0691,-0.0824,-0.0778,-0.0793,-0.0851,-0.0985,-0.0994,-0.1002,-0.1071,-0.109,-0.1105,0,0,0,0,0,0,-0.0575,-0.0591,-0.0571,-0.0664,-0.069,-0.0708,-0.0759,-0.0735,-0.0774,-0.0766,-0.075,-0.0757,-0.0843,-0.0855,-0.0803,-0.0956,-0.0898,-0.091,-0.0945,-0.0963,-0.0976,-0.0972,-0.0743,0,0,0,0,0,-0.0601,-0.065,-0.0662,-0.0743,-0.0757,-0.0756,-0.0783,-0.0771,-0.0798,-0.081,-0.0822,-0.0851,-0.0899,-0.0931,-0.0976,-0.1078,-0.1084,-0.1126,-0.114,-0.1152,-0.1163,-0.1219,-0.1238,-0.1035,-0.1035,-0.1035,0,0,-0.0655,-0.067,-0.0703,-0.0758,-0.0776,-0.0829,-0.0766,-0.0824,-0.0864,-0.0819,-0.0896,-0.0907,-0.0937,-0.103,-0.1071,-0.1043,-0.122,-0.1163,-0.1172,-0.1177,-0.1229,-0.1249,-0.1266,-0.1041,-0.104,-0.1039,0,0,-0.0782,-0.0798,-0.0867,-0.0887,-0.0916,-0.0914,-0.0931,-0.0953,-0.0958,-0.1035,-0.1003,-0.105,-0.1133,-0.1157,-0.118,-0.1315,-0.1289,-0.133,-0.1405,-0.1459,-0.1475,-0.1489,-0.1538,-0.1556,-0.1341,-0.1341,-0.1341,0,-0.0846,-0.0923,-0.0906,-0.0967,-0.0992,-0.0953,-0.1024,-0.1044,-0.1087,-0.1106,-0.1073,-0.1177,-0.1195,-0.1293,-0.1326,-0.1345,-0.1365,-0.1327,-0.1474,-0.1488,-0.1501,-0.1548,-0.1566,-0.1346,-0.1345,-0.1345,-0.1344,0,-0.1002,-0.1055,-0.1108,-0.1149,-0.1181,-0.1246,-0.124,-0.1275,-0.126,-0.1262,-0.1342,-0.1362,-0.141,-0.1432,-0.1419,-0.1529,-0.151,-0.1476,-0.1418,-0.1525,-0.1569,-0.1587,-0.1353,-0.1351,-0.135,-0.1349,0,0,-0.1174,-0.1204,-0.1224,-0.1242,-0.1271,-0.1313,-0.1378,-0.1424,-0.1454,-0.1485,-0.1539,-0.161,-0.1579,-0.1605,-0.1594,-0.1642,-0.1749,-0.1602,-0.1602,-0.1629,-0.1872,-0.1898,-0.1919,-0.1731,-0.1734,-0.1737,-0.1869,0,-0.1302,-0.1412,-0.1399,-0.1505,-0.1555,-0.1518,-0.1574,-0.1599,-0.1603,-0.1647,-0.1652,-0.1703,-0.1657,-0.1673,-0.1718,-0.1726,-0.1797,-0.1716,-0.1783,-0.1785,-0.1777,-0.1941,-0.1969,-0.2093,-0.1886,-0.1889,-0.1891,0,-0.1466,-0.1501,-0.1612,-0.1634,-0.1654,-0.1705,-0.1746,-0.1788,-0.1816,-0.1816,-0.1845,-0.1825,-0.1891,-0.1831,-0.1922,-0.1867,-0.1894,-0.1902,-0.1906,-0.1913,-0.1845,-0.1953,-0.2132,-0.2152,-0.1918,-0.1916,-0.1914,0,-0.1582,-0.1657,-0.1733,-0.175,-0.1777,-0.1813,-0.1827,-0.185,-0.1879,-0.1916,-0.1935,-0.1979,-0.2004,-0.2039,-0.2033,-0.1989,-0.2126,-0.2065,-0.2129,-0.2129,-0.216,-0.2159,-0.2347,-0.2176,-0.2176,-0.2175,-0.2175,0,-0.1726,-0.1796,-0.1786,-0.1833,-0.191,-0.1894,-0.1971,-0.198,-0.2002,-0.2051,-0.2022,-0.2069,-0.2057,-0.2104,-0.2099,-0.2176,-0.2187,-0.219,-0.2188,-0.2193,-0.2193,-0.2211,-0.2202,-0.218,-0.2179,-0.2178,-0.2177,0,-0.1869,-0.1865,-0.1945,-0.1964,-0.197,-0.2026,-0.2043,-0.2088,-0.2089,-0.2152,-0.2165,-0.2168,-0.2222,-0.2219,-0.228,-0.2276,-0.2372,-0.2359,-0.2362,-0.236,-0.2424,-0.2418,-0.2631,-0.2659,-0.2469,-0.2471,-0.2473,0,-0.1962,-0.2014,-0.2038,-0.2068,-0.2083,-0.2132,-0.2161,-0.2148,-0.218,-0.2215,-0.2257,-0.2307,-0.2347,-0.2435,-0.2443,-0.249,-0.2479,-0.255,-0.2486,-0.2489,-0.2481,-0.2478,-0.2484,-0.2563,-0.2566,-0.2567,-0.2569,0,-0.2128,-0.2123,-0.2165,-0.2207,-0.2242,-0.2275,-0.2304,-0.2331,-0.2321,-0.2358,-0.2412,-0.2443,-0.2505,-0.2556,-0.26,-0.2615,-0.2591,-0.2589,-0.2606,-0.2612,-0.2612,-0.2614,-0.2398,-0.2584,-0.2583,-0.2581,-0.2581,-0.258,-0.2249,-0.2294,-0.2318,-0.2366,-0.2387,-0.2415,-0.2458,-0.2465,-0.2509,-0.2557,-0.2547,-0.2608,-0.2635,-0.2692,-0.2711,-0.2759,-0.2734,-0.2759,-0.2765,-0.2772,-0.278,-0.2603,-0.2767,-0.2767,-0.2766,-0.2766,-0.2766,0,-0.2414,-0.2427,-0.2472,-0.2514,-0.2552,-0.2524,-0.2556,-0.259,-0.2643,-0.267,-0.2709,-0.2772,-0.2821,-0.2833,-0.2881,-0.2918,-0.2908,-0.2931,-0.2928,-0.2932,-0.2799,-0.278,-0.2938,-0.2938,-0.2938,-0.2938,-0.2938,-0.2938,-0.2504,-0.2579,-0.2578,-0.2663,-0.2676,-0.2735,-0.2755,-0.2782,-0.2803,-0.2873,-0.2914,-0.2921,-0.2942,-0.2991,-0.3035,-0.3038,-0.3057,-0.3085,-0.3083,-0.2959,-0.2942,-0.2925,-0.2907,-0.3089,-0.3089,-0.3212,-0.3213,-0.3214]},{"header":{"parameterUnit":"m.s-1","parameterCategory":1,"la1":30.2991,"la2":30.254,"lo1":-89.0895,"lo2":-89.0444,"dy":0.0017,"dx":0.0017,"nx":28,"ny":28,"refTime":"2023-10-28T21:00:00:Z","depth":0,"parameterNumber":3,"parameterNumberName":"V-component_of_WINDS"},"data":[0,0,0,0,0,0,0,0,0,0,0,0,0,0,0,0,0,0,0,0,0,0,0,0,0,0,0,0,0,0,0,0,0,0,0,0,0,0,0,0,0,0,0,0,0,0,0,0,0,0,0,0,0,0,0,0,0,0,-0.7012,-0.7011,0,-0.6869,-0.6868,-0.6866,-0.6847,-0.6848,-0.6849,-0.6851,-0.6703,-0.6698,-0.6693,0,0,0,0,0,0,0,0,0,0,0,0,0,-0.7269,-0.7265,-0.7012,-0.701,-0.7009,-0.6869,-0.6868,-0.6866,-0.6846,-0.6848,-0.685,-0.6851,-0.6705,-0.6699,-0.6692,0,0,0,0,0,0,0,0,0,0,0,0,0,-0.7145,-0.7263,-0.7013,-0.6982,-0.6978,-0.687,-0.6867,-0.6865,-0.6846,-0.6848,-0.685,-0.6852,-0.6707,-0.6699,-0.6692,-0.6603,0,0,-0.6668,-0.6664,0,0,0,0,0,0,0,0,-0.7152,-0.7136,-0.6989,-0.6984,-0.6979,-0.6878,-0.6904,-0.6777,-0.6846,-0.6896,-0.6851,-0.6853,-0.676,-0.6748,-0.6716,-0.6596,-0.659,-0.6667,-0.6662,-0.6659,-0.6657,0,0,0,0,0,0,0,-0.7161,-0.7142,-0.6956,-0.6986,-0.6981,-0.6976,-0.6961,-0.688,-0.6818,-0.6892,-0.689,-0.6874,-0.6757,-0.6724,-0.6713,-0.6588,-0.6667,-0.666,-0.6656,-0.6653,-0.6392,-0.639,0,0,0,0,0,0,-0.7175,-0.7149,-0.696,-0.6951,-0.7073,-0.697,-0.6953,-0.6908,-0.6819,-0.6807,-0.6872,-0.6873,-0.6736,-0.6722,-0.6707,-0.66,-0.6659,-0.6652,-0.6647,-0.6394,-0.6391,-0.6389,0,0,0,0,0,0,-0.7181,-0.7158,-0.6966,-0.705,-0.7025,-0.6963,-0.6914,-0.6905,-0.6871,-0.6804,-0.6793,-0.6849,-0.6737,-0.6718,-0.663,-0.6595,-0.6648,-0.6641,-0.6397,-0.6393,-0.639,-0.6385,0,0,0,0,0,0,-0.7188,-0.7161,-0.7126,-0.7049,-0.7021,-0.6891,-0.6911,-0.69,-0.6858,-0.6858,-0.6779,-0.6768,-0.6737,-0.6642,-0.6622,-0.6585,-0.6635,-0.64,-0.6395,-0.6391,-0.6388,-0.6381,-0.6376,0,0,0,0,0,-0.7197,-0.7129,-0.7124,-0.7101,-0.6976,-0.6888,-0.6872,-0.6838,-0.6855,-0.682,-0.6778,-0.6771,-0.6602,-0.6633,-0.6611,-0.6571,-0.6402,-0.6396,-0.6392,-0.639,-0.6383,-0.6376,0,0,0,0,0,0,-0.7201,-0.7118,-0.7112,-0.7016,-0.696,-0.6885,-0.684,-0.6831,-0.6768,-0.677,-0.673,-0.6713,-0.6627,-0.659,-0.6626,-0.6483,-0.6503,-0.6494,-0.651,-0.6502,-0.6497,-0.6508,-0.6629,0,0,0,0,0,-0.7191,-0.7128,-0.7058,-0.698,-0.6953,-0.6902,-0.6862,-0.6841,-0.6781,-0.6756,-0.6707,-0.6649,-0.6583,-0.654,-0.6476,-0.6382,-0.6366,-0.6344,-0.6338,-0.6334,-0.6326,-0.6277,-0.6268,-0.6372,-0.6372,-0.6372,0,0,-0.7169,-0.7116,-0.7078,-0.698,-0.6934,-0.687,-0.6881,-0.6812,-0.6764,-0.6746,-0.666,-0.6623,-0.6555,-0.6465,-0.6422,-0.6431,-0.6294,-0.6328,-0.6325,-0.6319,-0.6271,-0.6261,-0.6253,-0.6369,-0.6369,-0.637,0,0,-0.7097,-0.705,-0.6981,-0.6936,-0.6866,-0.6833,-0.6817,-0.6744,-0.6719,-0.6633,-0.6619,-0.6562,-0.6448,-0.6402,-0.6363,-0.6278,-0.627,-0.6258,-0.6228,-0.618,-0.6172,-0.6165,-0.6137,-0.6127,-0.625,-0.625,-0.625,0,-0.7079,-0.6981,-0.6947,-0.6879,-0.6838,-0.682,-0.6752,-0.6708,-0.6621,-0.6593,-0.6604,-0.6464,-0.6417,-0.6317,-0.6297,-0.6265,-0.6247,-0.6266,-0.6176,-0.6168,-0.6161,-0.6134,-0.6123,-0.6249,-0.6249,-0.6249,-0.6249,0,-0.6963,-0.6896,-0.6849,-0.6768,-0.6721,-0.6653,-0.6609,-0.6566,-0.655,-0.6516,-0.6431,-0.6374,-0.6299,-0.6274,-0.6256,-0.6173,-0.6181,-0.6184,-0.6205,-0.6151,-0.6125,-0.6114,-0.6248,-0.6248,-0.6248,-0.6249,0,0,-0.6888,-0.6791,-0.6774,-0.6739,-0.6662,-0.661,-0.6542,-0.647,-0.6435,-0.6376,-0.632,-0.6226,-0.623,-0.6186,-0.6164,-0.6122,-0.6062,-0.6132,-0.613,-0.6123,-0.5969,-0.5968,-0.5956,-0.6056,-0.6054,-0.6052,-0.5976,0,-0.6809,-0.6688,-0.6657,-0.6555,-0.6494,-0.6477,-0.6419,-0.6366,-0.6334,-0.6278,-0.6241,-0.6177,-0.6186,-0.616,-0.6118,-0.6078,-0.6031,-0.6083,-0.6005,-0.6003,-0.6024,-0.5942,-0.5939,-0.5869,-0.5965,-0.5963,-0.5962,0,-0.6699,-0.664,-0.6532,-0.6467,-0.644,-0.6388,-0.6322,-0.6268,-0.6209,-0.6188,-0.6142,-0.6124,-0.6055,-0.6079,-0.5984,-0.602,-0.5987,-0.5963,-0.5959,-0.5951,-0.598,-0.5934,-0.5846,-0.5836,-0.5945,-0.5946,-0.5947,0,-0.6659,-0.6552,-0.6474,-0.6444,-0.6365,-0.6329,-0.6295,-0.6238,-0.6198,-0.6139,-0.6114,-0.6048,-0.6012,-0.5962,-0.5928,-0.5948,-0.5837,-0.5857,-0.5819,-0.582,-0.5797,-0.5799,-0.5704,-0.5773,-0.5773,-0.5773,-0.5774,0,-0.6574,-0.6509,-0.6455,-0.6408,-0.6336,-0.6301,-0.6231,-0.6196,-0.6146,-0.6092,-0.6073,-0.6024,-0.5981,-0.5926,-0.5899,-0.5826,-0.5809,-0.5792,-0.5786,-0.5794,-0.5797,-0.5772,-0.5777,-0.5771,-0.5771,-0.5772,-0.5772,0,-0.6516,-0.6477,-0.6392,-0.6325,-0.6307,-0.6257,-0.6201,-0.6155,-0.6122,-0.6055,-0.6037,-0.5987,-0.5921,-0.5882,-0.5799,-0.5781,-0.5701,-0.5696,-0.5721,-0.5719,-0.5684,-0.5688,-0.5571,-0.5555,-0.5633,-0.5632,-0.5632,0,-0.6465,-0.6415,-0.6344,-0.6307,-0.6273,-0.6213,-0.6173,-0.6138,-0.6097,-0.6028,-0.5991,-0.5925,-0.587,-0.5766,-0.5722,-0.5659,-0.5654,-0.5617,-0.5644,-0.5656,-0.5656,-0.566,-0.5656,-0.5613,-0.5612,-0.5612,-0.5611,0,-0.638,-0.6364,-0.6307,-0.6244,-0.6197,-0.6145,-0.6093,-0.6064,-0.6021,-0.5976,-0.591,-0.5867,-0.5784,-0.5719,-0.5653,-0.5618,-0.5608,-0.5603,-0.5591,-0.56,-0.5618,-0.561,-0.5711,-0.5606,-0.5606,-0.5607,-0.5607,-0.5607,-0.6325,-0.6281,-0.6225,-0.6163,-0.6121,-0.6075,-0.6029,-0.5992,-0.5936,-0.5866,-0.5849,-0.578,-0.5725,-0.5636,-0.56,-0.5546,-0.5552,-0.5534,-0.553,-0.5527,-0.5527,-0.5626,-0.5534,-0.5534,-0.5534,-0.5534,-0.5534,0,-0.6241,-0.6205,-0.6148,-0.6078,-0.603,-0.6025,-0.5969,-0.5929,-0.5868,-0.5818,-0.5766,-0.5691,-0.5629,-0.5581,-0.5518,-0.5484,-0.5478,-0.5469,-0.5472,-0.5464,-0.5524,-0.5542,-0.5475,-0.5475,-0.5475,-0.5475,-0.5475,-0.5475,-0.6191,-0.6118,-0.6096,-0.6003,-0.5967,-0.59,-0.5868,-0.5826,-0.5786,-0.5704,-0.5653,-0.5622,-0.5574,-0.5508,-0.5451,-0.5439,-0.5417,-0.5409,-0.5397,-0.5453,-0.546,-0.5466,-0.5482,-0.5404,-0.5404,-0.5342,-0.5341,-0.5341]}]]